Location: Hochstatterhof
(48.7256°N, 10.3487°E)
Time: 03:07:09
(UTC+00:00)

CBERS-1 - Pass Details

Date: 26 September 2023
Orbit: 768 x 775 km, 98.8° (Epoch: 04 December)

Event Time Altitude Azimuth Distance (km) Brightness Sun altitude
Rises 04:06:33 0° 9° (N) 3,257 7.5 -11.3°
Reaches altitude 10° 04:08:57 10° 3° (N) 2,326 6.7 -10.9°
Maximum altitude 04:13:46 43° 293° (WNW) 1,078 4.4 -10.1°
Drops below altitude 10° 04:18:34 10° 223° (SW) 2,315 6.0 -9.3°
Enters shadow 04:20:36 - 218° (SW) 3,105 6.7 -9.0°
